Weather in Cherdyn

Russia / Perm Krai     60°24′10″N   56°28′46″E
temp.,
°C
wind,
m/s
gust,
m/s
humid.,
%
clouds,
%
prec.,
mm/h
press.,
hPa
HPBL,
m
9 march, tue
tue923:00−14ne2596100 0.4 1001154
02:00−15n3696100 0.1 1002200
05:00−17n369596 0.1 1004238
08:00−21n379599 0.0 1005235
11:00−22nnw369393 0.0 1007264
14:00−19nnw369067 0.0 1010392
17:00−19nnw479077 0.0 1012473
20:00−24n379567 0.0 1014183
10 march, wed
wed1023:00−28n279533 0.0 1017160
02:00−31n23970 0.0 101780
05:00−32n36970 0.0 1018118
08:00−33n25980 0.0 101894
11:00−26n36930 0.0 1017283
14:00−21n368920 0.0 1016510
17:00−19nnw368747 0.0 1015617
20:00−24nw229785 0.0 101620
11 march, thu
thu1123:00−26wnw119859 0.0 101520
02:00−23wsw139985 0.1 101484
05:00−22ssw239993 0.2 1012110
08:00−20ssw1199100 0.3 101244
11:00−16e1194100 0.6 1012208
14:00−12n1490100 0.3 1012509
17:00−11nnw2590100 0.6 1012560
20:00−13ssw1197100 0.4 101324
12 march, fri
fri1223:00−12nw41190100 0.6 1013663
02:00−15wnw3109399 0.0 1014386
05:00−14wnw3109499 0.1 1014548
08:00−14w3993100 0.1 1015592
11:00−12w4889100 0.1 1015743
14:00−10w5987100 0.1 1015772
17:00−9w51089100 0.1 1014740
20:00−9w41291100 0.1 1015760
13 march, sat
sat1323:00−8w41391100 0.2 1017786
02:00−8w41292100 0.1 1018680
05:00−10w41192100 0.1 1020530
08:00−12wsw31093100 0.0 1022411
11:00−10wsw4888100 0.0 1023404
14:00−7sw4786100 0.0 1024478
17:00−6sw4986100 0.0 1023584
20:00−10ssw31090100 0.0 1024308